Voltar ao catálogo

GEESAT 3-08

AtivoCiênciaLEO
NORAD 61018·PAYLOAD·🇨🇳 China

Lançado Sep 5, 2024 de Taiyuan Satellite Launch Center

Loading…

Próximas Passagens (próximas 24 horas)

TLE

AtualizadoSource: Space-Track

Época: Sep 14, 2026, 20:33 UTC

1 61018U 24159H   26257.85640115  .00001555  00000-0  20900-3 0  9999
2 61018  50.0064  27.1335 0027196  78.6123 281.7869 14.84486768110094

Acompanhe GEESAT 3-08 em tempo real com AllMySat

Download on the App Store